When you browse on this site, cookies collect data to enhance your experience and personalize the content and advertising you see.
Visit our Privacy Policy to learn more. By continuing to use the site, you agree to this use of cookies and data.
  • In Hungary
  • List of Countries
  • For 7 days
  • Water Temperature
  • Weather Map
  • News
  • Weather Widgets
  • user-avatar
    Login

    Hourly Weather Vetozhetka

    Today, 20 January, Monday

    Time Temperature Precipitation Wind Pressure Humidity
    00:00 0°C° 0 mm 4 mps 749 mmHg 89%
    01:00 0°C° 0 mm 5 mps 749 mmHg 88%
    02:00 0°C° 0 mm 5 mps 750 mmHg 89%
    03:00 0°C° 0 mm 5 mps 750 mmHg 89%
    04:00 -1°C° 0 mm 5 mps 749 mmHg 89%
    05:00 -1°C° 0 mm 4 mps 749 mmHg 89%
    06:00 -1°C° 0 mm 4 mps 749 mmHg 88%
    07:00 -1°C° 0 mm 4 mps 749 mmHg 87%
    08:00 -1°C° 0 mm 5 mps 750 mmHg 85%
    09:00 -1°C° 0 mm 5 mps 750 mmHg 87%
    10:00 -1°C° 0 mm 5 mps 749 mmHg 89%
    11:00 -1°C° 0 mm 5 mps 749 mmHg 90%
    12:00 -1°C° 0 mm 5 mps 750 mmHg 88%
    13:00 -1°C° 0 mm 5 mps 750 mmHg 87%
    14:00 -1°C° 0 mm 5 mps 750 mmHg 85%
    15:00 -1°C° 0 mm 5 mps 749 mmHg 84%
    16:00 -1°C° 0 mm 5 mps 749 mmHg 83%
    17:00 -1°C° 0 mm 5 mps 749 mmHg 82%
    18:00 -1°C° 0 mm 5 mps 748 mmHg 83%
    19:00 -2°C° 0 mm 5 mps 748 mmHg 83%
    20:00 -2°C° 0 mm 5 mps 747 mmHg 83%
    21:00 -2°C° 0 mm 5 mps 747 mmHg 83%
    22:00 -2°C° 0 mm 5 mps 746 mmHg 83%
    23:00 -2°C° 0 mm 5 mps 746 mmHg 83%

    Tomorrow, 21 January, Tuesday

    Time Temperature Precipitation Wind Pressure Humidity
    00:00 -2°C° 0 mm 5 mps 745 mmHg 84%
    01:00 -1°C° 0 mm 5 mps 744 mmHg 85%
    02:00 -1°C° 0 mm 5 mps 744 mmHg 85%
    03:00 -2°C° 0 mm 6 mps 743 mmHg 87%
    04:00 -2°C° 0 mm 6 mps 742 mmHg 89%
    05:00 -1°C° 0 mm 6 mps 741 mmHg 90%
    06:00 -1°C° 0 mm 6 mps 740 mmHg 90%
    07:00 -1°C° 0 mm 6 mps 740 mmHg 91%
    08:00 -1°C° 0 mm 6 mps 739 mmHg 91%
    09:00 +1°C° 0 mm 6 mps 738 mmHg 91%
    10:00 +1°C° 0 mm 6 mps 738 mmHg 92%
    11:00 +2°C° 0 mm 6 mps 737 mmHg 92%
    12:00 +2°C° 0 mm 6 mps 737 mmHg 92%
    13:00 +2°C° 0 mm 6 mps 736 mmHg 92%
    14:00 +3°C° 0 mm 6 mps 735 mmHg 92%
    15:00 +3°C° 0.9 mm 6 mps 734 mmHg 91%
    16:00 +3°C° 0.9 mm 6 mps 733 mmHg 91%
    17:00 +4°C° 0.9 mm 7 mps 732 mmHg 91%
    18:00 +3°C° 0.7 mm 7 mps 732 mmHg 87%
    19:00 +2°C° 0.7 mm 7 mps 732 mmHg 82%
    20:00 0°C° 0.7 mm 7 mps 733 mmHg 78%
    21:00 -1°C° 0 mm 7 mps 733 mmHg 76%
    22:00 -2°C° 0 mm 6 mps 733 mmHg 74%
    23:00 -3°C° 0 mm 6 mps 733 mmHg 73%

    Day after tomorrow, 22 January, Wednesday

    Time Temperature Precipitation Wind Pressure Humidity
    00:00 -3°C° 0 mm 6 mps 733 mmHg 73%
    01:00 -3°C° 0 mm 6 mps 733 mmHg 74%
    02:00 -3°C° 0 mm 6 mps 733 mmHg 75%
    03:00 -3°C° 0 mm 6 mps 732 mmHg 76%
    04:00 -3°C° 0 mm 6 mps 732 mmHg 78%
    05:00 -3°C° 0 mm 6 mps 731 mmHg 79%
    06:00 -3°C° 0.1 mm 6 mps 730 mmHg 81%
    07:00 -4°C° 0.1 mm 6 mps 730 mmHg 82%
    08:00 -4°C° 0.1 mm 6 mps 729 mmHg 83%
    09:00 -3°C° 0.2 mm 6 mps 729 mmHg 82%
    10:00 -3°C° 0.2 mm 6 mps 729 mmHg 80%
    11:00 -3°C° 0.2 mm 6 mps 728 mmHg 79%
    12:00 -3°C° 0.3 mm 6 mps 728 mmHg 75%
    13:00 -3°C° 0.3 mm 6 mps 728 mmHg 70%
    14:00 -3°C° 0.3 mm 6 mps 728 mmHg 66%
    15:00 -4°C° 0.1 mm 6 mps 728 mmHg 72%
    16:00 -4°C° 0.1 mm 6 mps 728 mmHg 79%
    17:00 -5°C° 0.1 mm 6 mps 729 mmHg 85%
    18:00 -5°C° 0.1 mm 6 mps 729 mmHg 84%
    19:00 -5°C° 0.1 mm 6 mps 730 mmHg 82%
    20:00 -5°C° 0.1 mm 6 mps 731 mmHg 81%
    21:00 -6°C° 0 mm 6 mps 731 mmHg 76%
    22:00 -6°C° 0 mm 6 mps 732 mmHg 72%
    23:00 -8°C° 0 mm 6 mps 733 mmHg 67%

    23 January, Thursday

    Time Temperature Precipitation Wind Pressure Humidity
    00:00 -8°C° 0 mm 6 mps 734 mmHg 67%
    01:00 -8°C° 0 mm 6 mps 734 mmHg 67%
    02:00 -9°C° 0 mm 6 mps 735 mmHg 67%
    03:00 -9°C° 0 mm 6 mps 736 mmHg 64%
    04:00 -9°C° 0 mm 6 mps 736 mmHg 62%
    05:00 -9°C° 0 mm 6 mps 737 mmHg 60%
    06:00 -9°C° 0 mm 6 mps 737 mmHg 58%
    07:00 -9°C° 0 mm 6 mps 738 mmHg 56%
    08:00 -8°C° 0 mm 5 mps 738 mmHg 54%
    09:00 -8°C° 0 mm 6 mps 738 mmHg 56%
    10:00 -8°C° 0 mm 6 mps 739 mmHg 58%
    11:00 -7°C° 0 mm 7 mps 739 mmHg 60%
    12:00 -6°C° 0 mm 6 mps 740 mmHg 58%
    13:00 -6°C° 0 mm 6 mps 740 mmHg 56%
    14:00 -6°C° 0 mm 6 mps 740 mmHg 54%
    15:00 -6°C° 0 mm 5 mps 741 mmHg 56%
    16:00 -7°C° 0 mm 4 mps 741 mmHg 58%
    17:00 -7°C° 0 mm 4 mps 742 mmHg 60%
    18:00 -6°C° 0 mm 3 mps 742 mmHg 62%
    19:00 -6°C° 0 mm 2 mps 742 mmHg 65%
    20:00 -6°C° 0 mm 2 mps 742 mmHg 68%
    21:00 -6°C° 0 mm 2 mps 742 mmHg 72%
    22:00 -5°C° 0 mm 2 mps 742 mmHg 76%
    23:00 -5°C° 0 mm 2 mps 742 mmHg 79%

    24 January, Friday

    Time Temperature Precipitation Wind Pressure Humidity
    00:00 -5°C° 0 mm 3 mps 741 mmHg 82%
    01:00 -5°C° 0 mm 3 mps 741 mmHg 85%
    02:00 -4°C° 0 mm 4 mps 740 mmHg 88%
    03:00 -4°C° 0.1 mm 4 mps 740 mmHg 89%
    04:00 -4°C° 0.1 mm 4 mps 739 mmHg 89%
    05:00 -5°C° 0.1 mm 5 mps 738 mmHg 90%
    06:00 -4°C° 0.3 mm 5 mps 738 mmHg 92%
    07:00 -3°C° 0.3 mm 4 mps 737 mmHg 94%
    08:00 -2°C° 0.3 mm 4 mps 737 mmHg 96%
    09:00 -2°C° 0.2 mm 4 mps 736 mmHg 96%
    10:00 -1°C° 0.2 mm 4 mps 736 mmHg 95%
    11:00 0°C° 0.2 mm 4 mps 736 mmHg 95%
    12:00 +1°C° 0.1 mm 4 mps 736 mmHg 95%
    13:00 +1°C° 0.1 mm 4 mps 736 mmHg 94%
    14:00 +1°C° 0.1 mm 4 mps 735 mmHg 93%
    15:00 +1°C° 0.2 mm 4 mps 735 mmHg 93%
    16:00 +1°C° 0.2 mm 4 mps 735 mmHg 93%
    17:00 +1°C° 0.2 mm 5 mps 735 mmHg 93%
    18:00 +1°C° 0.1 mm 5 mps 735 mmHg 93%
    19:00 +1°C° 0.1 mm 5 mps 735 mmHg 93%
    20:00 +1°C° 0.1 mm 5 mps 735 mmHg 94%
    21:00 +1°C° 0.1 mm 4 mps 735 mmHg 94%
    22:00 +1°C° 0.1 mm 4 mps 734 mmHg 94%
    23:00 +1°C° 0.1 mm 4 mps 734 mmHg 94%

    25 January, Saturday

    Time Temperature Precipitation Wind Pressure Humidity
    00:00 +1°C° 0.4 mm 4 mps 734 mmHg 95%
    01:00 +1°C° 0.4 mm 4 mps 734 mmHg 96%
    02:00 +1°C° 0.4 mm 4 mps 734 mmHg 96%
    03:00 +1°C° 0.3 mm 4 mps 734 mmHg 96%
    04:00 +1°C° 0.3 mm 4 mps 734 mmHg 97%
    05:00 +1°C° 0.3 mm 3 mps 734 mmHg 97%
    06:00 +1°C° 0.2 mm 3 mps 735 mmHg 97%
    07:00 +1°C° 0.2 mm 3 mps 735 mmHg 96%
    08:00 +2°C° 0.2 mm 3 mps 735 mmHg 96%
    09:00 +2°C° 0.2 mm 3 mps 735 mmHg 96%
    10:00 +2°C° 0.2 mm 3 mps 735 mmHg 96%
    11:00 +2°C° 0.2 mm 3 mps 735 mmHg 96%
    12:00 +2°C° 0.4 mm 3 mps 735 mmHg 96%
    13:00 +2°C° 0.4 mm 3 mps 735 mmHg 96%
    14:00 +2°C° 0.4 mm 3 mps 735 mmHg 96%
    15:00 +2°C° 0.2 mm 3 mps 736 mmHg 96%
    16:00 +2°C° 0.2 mm 3 mps 736 mmHg 96%
    17:00 +2°C° 0.2 mm 3 mps 736 mmHg 96%
    18:00 +1°C° 0.3 mm 3 mps 736 mmHg 96%
    19:00 +2°C° 0.3 mm 2 mps 737 mmHg 97%
    20:00 +2°C° 0.3 mm 2 mps 737 mmHg 97%
    21:00 +2°C° 0.1 mm 2 mps 737 mmHg 97%
    22:00 +1°C° 0.1 mm 2 mps 737 mmHg 97%
    23:00 +1°C° 0.1 mm 2 mps 738 mmHg 96%
    Show more